| time (UTC) | temp C | wind direction | speed KPH | gust KPH | rain 1hr cm | rain 24hr cm | rain mn cm | humidity % | barometer mb |
| 20260507114537 | 4 | 2 | 6.4 | 8.0 | 0.00 | 0.00 | 0.00 | 69 | 972.9 |
| 20260507113043 | 4 | 2 | 4.8 | 8.0 | 0.00 | 0.00 | 0.00 | 68 | 972.8 |
| 20260507111530 | 4 | 2 | 6.4 | 8.0 | 0.00 | 0.00 | 0.00 | 65 | 972.8 |
| 20260507110022 | 5 | 2 | 4.8 | 12.9 | 0.00 | 0.00 | 0.00 | 61 | 973.0 |
| 20260507104520 | 5 | 1 | 1.6 | 8.0 | 0.00 | 0.00 | 0.00 | 62 | 973.1 |
| 20260507103021 | 5 | 2 | 8.0 | 16.1 | 0.00 | 0.00 | 0.00 | 61 | 973.3 |
| 20260507101519 | 5 | 2 | 8.0 | 12.9 | 0.00 | 0.00 | 0.00 | 59 | 973.5 |
| 20260507100016 | 5 | 2 | 0.0 | 12.9 | 0.00 | 0.00 | 0.00 | 60 | 973.8 |
| 20260507094516 | 5 | 1 | 1.6 | 9.7 | 0.00 | 0.00 | 0.00 | 57 | 973.9 |
| 20260507093010 | 4 | 1 | 6.4 | 9.7 | 0.00 | 0.00 | 0.00 | 63 | 974.1 |
| 20260507091509 | 3 | 2 | 0.0 | 8.0 | 0.00 | 0.00 | 0.00 | 67 | 974.4 |
| 20260507090009 | 3 | 1 | 4.8 | 12.9 | 0.00 | 0.00 | 0.00 | 66 | 974.6 |
| 20260507084507 | 3 | 1 | 3.2 | 4.8 | 0.00 | 0.00 | 0.00 | 68 | 974.9 |
| 20260507083005 | 3 | 1 | 0.0 | 0.0 | 0.00 | 0.00 | 0.00 | 66 | 975.0 |
| 20260507081507 | 3 | 1 | 0.0 | 0.0 | 0.00 | 0.00 | 0.00 | 67 | 975.0 |
| 20260507080004 | 3 | 1 | 0.0 | 0.0 | 0.00 | 0.00 | 0.00 | 67 | 975.1 |
| 20260507074501 | 3 | 1 | 0.0 | 0.0 | 0.00 | 0.00 | 0.00 | 67 | 975.3 |
| 20260507073103 | 3 | 1 | 0.0 | 0.0 | 0.00 | 0.00 | 0.00 | 65 | 975.5 |
| 20260507071600 | 3 | 1 | 0.0 | 3.2 | 0.00 | 0.00 | 0.00 | 63 | 975.6 |
| 20260507070105 | 3 | 1 | 0.0 | 4.8 | 0.00 | 0.00 | 0.00 | 64 | 975.8 |
| 20260507064558 | 3 | 10 | 0.0 | 0.0 | 0.00 | 0.00 | 0.00 | 62 | 975.9 |
| 20260507063058 | 3 | 9 | 0.0 | 3.2 | 0.00 | 0.00 | 0.00 | 65 | 975.9 |
| 20260507061556 | 2 | 8 | 0.0 | 0.0 | 0.00 | 0.00 | 0.00 | 67 | 975.9 |
| 20260507060101 | 2 | 8 | 0.0 | 3.2 | 0.00 | 0.00 | 0.00 | 64 | 976.1 |
| 20260507054554 | 2 | 8 | 0.0 | 3.2 | 0.00 | 0.00 | 0.00 | 64 | 976.0 |
| 20260507053049 | 3 | 5 | 0.0 | 0.0 | 0.00 | 0.00 | 0.00 | 62 | 975.9 |
| 20260507051547 | 4 | 5 | 0.0 | 0.0 | 0.00 | 0.00 | 0.00 | 61 | 976.0 |
| 20260507050044 | 4 | 5 | 0.0 | 0.0 | 0.00 | 0.00 | 0.00 | 65 | 976.1 |
| 20260507044554 | 5 | 5 | 0.0 | 0.0 | 0.00 | 0.00 | 0.00 | 55 | 976.1 |
| 20260507043056 | 5 | 5 | 0.0 | 0.0 | 0.00 | 0.00 | 0.00 | 51 | 976.2 |
| 20260507041542 | 6 | 5 | 0.0 | 0.0 | 0.00 | 0.00 | 0.00 | 48 | 976.3 |
| 20260507040042 | 6 | 5 | 0.0 | 0.0 | 0.00 | 0.00 | 0.00 | 48 | 976.5 |
| 20260507034542 | 6 | 5 | 0.0 | 0.0 | 0.00 | 0.00 | 0.00 | 47 | 976.5 |
| 20260507033041 | 6 | 5 | 0.0 | 0.0 | 0.00 | 0.00 | 0.00 | 47 | 976.6 |
| 20260507031545 | 7 | 5 | 0.0 | 0.0 | 0.00 | 0.00 | 0.00 | 46 | 976.8 |
| 20260507030042 | 7 | 6 | 0.0 | 0.0 | 0.00 | 0.00 | 0.00 | 45 | 976.7 |
| 20260507024542 | 7 | 6 | 0.0 | 0.0 | 0.00 | 0.00 | 0.00 | 45 | 976.7 |
| 20260507023039 | 7 | 6 | 0.0 | 1.6 | 0.00 | 0.00 | 0.00 | 45 | 976.7 |
| 20260507021540 | 8 | 6 | 0.0 | 0.0 | 0.00 | 0.00 | 0.00 | 43 | 976.6 |
| 20260507020048 | 8 | 360 | 0.0 | 0.0 | 0.00 | 0.00 | 0.00 | 42 | 976.6 |
| 20260507014538 | 9 | 360 | 0.0 | 4.8 | 0.00 | 0.00 | 0.00 | 41 | 976.4 |
| 20260507013038 | 9 | 360 | 0.0 | 0.0 | 0.00 | 0.00 | 0.00 | 40 | 976.5 |
| 20260507011545 | 10 | 360 | 0.0 | 6.4 | 0.00 | 0.00 | 0.00 | 40 | 976.5 |
| 20260507010037 | 10 | 360 | 3.2 | 9.7 | 0.00 | 0.00 | 0.00 | 38 | 976.5 |
| 20260507004535 | 11 | 360 | 3.2 | 11.3 | 0.00 | 0.00 | 0.00 | 37 | 976.5 |
| 20260507003036 | 11 | 360 | 4.8 | 12.9 | 0.00 | 0.00 | 0.00 | 37 | 976.6 |
| 20260507001603 | 11 | 360 | 9.7 | 27.4 | 0.00 | 0.00 | 0.00 | 36 | 976.6 |
| 20260507000041 | 11 | 360 | 11.3 | 20.9 | 0.00 | 0.00 | 0.00 | 36 | 976.7 |
| 20260506234533 | 11 | 360 | 8.0 | 24.1 | 0.00 | 0.00 | 0.00 | 36 | 976.7 |
| 20260506233033 | 12 | 4 | 11.3 | 24.1 | 0.00 | 0.00 | 0.00 | 34 | 976.9 |
| 20260506231533 | 11 | 360 | 8.0 | 20.9 | 0.00 | 0.00 | 0.00 | 37 | 976.8 |
| 20260506230050 | 12 | 360 | 17.7 | 32.2 | 0.00 | 0.00 | 0.00 | 34 | 977.0 |
| 20260506224532 | 12 | 360 | 17.7 | 32.2 | 0.00 | 0.00 | 0.00 | 34 | 977.1 |
| 20260506223033 | 12 | 6 | 19.3 | 35.4 | 0.00 | 0.00 | 0.00 | 33 | 976.8 |
| 20260506221530 | 12 | 5 | 16.1 | 35.4 | 0.00 | 0.00 | 0.00 | 35 | 977.0 |
| 20260506220035 | 12 | 6 | 16.1 | 33.8 | 0.00 | 0.00 | 0.00 | 34 | 976.9 |
| 20260506214527 | 12 | 6 | 17.7 | 35.4 | 0.00 | 0.00 | 0.00 | 36 | 977.1 |
| 20260506213026 | 11 | 6 | 11.3 | 27.4 | 0.00 | 0.00 | 0.00 | 38 | 977.0 |
| 20260506211525 | 11 | 6 | 14.5 | 33.8 | 0.00 | 0.00 | 0.00 | 37 | 977.2 |
| 20260506210044 | 11 | 360 | 20.9 | 32.2 | 0.00 | 0.00 | 0.00 | 35 | 977.4 |
| 20260506204523 | 11 | 360 | 19.3 | 35.4 | 0.00 | 0.00 | 0.00 | 39 | 977.6 |
| 20260506203021 | 11 | 6 | 17.7 | 30.6 | 0.00 | 0.00 | 0.00 | 38 | 977.9 |
| 20260506201522 | 11 | 6 | 12.9 | 29.0 | 0.00 | 0.00 | 0.00 | 41 | 977.9 |
| 20260506200018 | 11 | 5 | 11.3 | 24.1 | 0.00 | 0.00 | 0.00 | 42 | 977.9 |
| 20260506194518 | 10 | 6 | 14.5 | 29.0 | 0.00 | 0.00 | 0.00 | 42 | 978.1 |
| 20260506193025 | 10 | 360 | 19.3 | 33.8 | 0.00 | 0.00 | 0.00 | 45 | 978.0 |
| 20260506191515 | 11 | 5 | 14.5 | 27.4 | 0.00 | 0.00 | 0.00 | 42 | 978.1 |
| 20260506190014 | 10 | 7 | 16.1 | 29.0 | 0.00 | 0.00 | 0.00 | 40 | 978.3 |
| 20260506184511 | 10 | 5 | 12.9 | 37.0 | 0.00 | 0.00 | 0.00 | 43 | 978.2 |
| 20260506183009 | 10 | 360 | 19.3 | 35.4 | 0.00 | 0.00 | 0.00 | 41 | 978.4 |
| 20260506181511 | 9 | 360 | 8.0 | 29.0 | 0.00 | 0.00 | 0.00 | 45 | 978.5 |
| 20260506180010 | 9 | 360 | 12.9 | 37.0 | 0.00 | 0.00 | 0.00 | 44 | 978.6 |
| 20260506174507 | 10 | 6 | 16.1 | 29.0 | 0.00 | 0.00 | 0.00 | 42 | 978.8 |
| 20260506173110 | 9 | 360 | 12.9 | 24.1 | 0.00 | 0.00 | 0.00 | 45 | 978.9 |
| 20260506171504 | 8 | 360 | 19.3 | 38.6 | 0.00 | 0.00 | 0.00 | 43 | 978.8 |
| 20260506170003 | 8 | 360 | 19.3 | 37.0 | 0.00 | 0.00 | 0.00 | 43 | 978.9 |
| 20260506164509 | 8 | 360 | 19.3 | 30.6 | 0.00 | 0.00 | 0.00 | 43 | 978.9 |
| 20260506163111 | 8 | 360 | 17.7 | 30.6 | 0.00 | 0.00 | 0.00 | 46 | 978.9 |
| 20260506161559 | 8 | 360 | 19.3 | 33.8 | 0.00 | 0.00 | 0.00 | 46 | 978.8 |
| 20260506160122 | 8 | 360 | 8.0 | 22.5 | 0.00 | 0.00 | 0.00 | 50 | 978.8 |
| 20260506154559 | 8 | 360 | 14.5 | 32.2 | 0.00 | 0.00 | 0.00 | 47 | 978.7 |
| 20260506153055 | 8 | 6 | 9.7 | 24.1 | 0.00 | 0.00 | 0.00 | 47 | 978.5 |
| 20260506151557 | 8 | 4 | 8.0 | 19.3 | 0.00 | 0.00 | 0.00 | 50 | 978.6 |
| 20260506144551 | 7 | 4 | 9.7 | 19.3 | 0.00 | 0.00 | 0.00 | 50 | 978.6 |
| 20260506143049 | 7 | 6 | 4.8 | 19.3 | 0.00 | 0.00 | 0.00 | 52 | 978.4 |
| 20260506141546 | 7 | 6 | 8.0 | 16.1 | 0.00 | 0.00 | 0.00 | 49 | 978.3 |
| 20260506140043 | 6 | 6 | 8.0 | 25.7 | 0.00 | 0.00 | 0.00 | 51 | 978.4 |
| 20260506134540 | 6 | 6 | 6.4 | 12.9 | 0.00 | 0.00 | 0.00 | 53 | 978.2 |
| 20260506133049 | 6 | 5 | 4.8 | 11.3 | 0.00 | 0.00 | 0.00 | 56 | 978.1 |
| 20260506131537 | 5 | 5 | 4.8 | 9.7 | 0.00 | 0.00 | 0.00 | 57 | 978.0 |
| 20260506130035 | 5 | 6 | 1.6 | 8.0 | 0.00 | 0.00 | 0.00 | 60 | 977.9 |
| 20260506124535 | 4 | 6 | 3.2 | 6.4 | 0.00 | 0.00 | 0.00 | 64 | 977.9 |
| 20260506123034 | 3 | 6 | 3.2 | 8.0 | 0.00 | 0.00 | 0.00 | 66 | 977.8 |
| 20260506121532 | 2 | 360 | 3.2 | 8.0 | 0.00 | 0.00 | 0.00 | 69 | 977.5 |
| 20260506120049 | 2 | 6 | 3.2 | 9.7 | 0.00 | 0.00 | 0.00 | 71 | 977.4 |